Miscellaneous Local Product
Issued by NWS Hastings, NE

Home | Current Version | Previous Version | Text Only | Print | Product List | Glossary Off
Versions: 1 2 3 4 5 6 7 8 9 10 11 12 13 14 15 16 17 18 19 20 21 22 23 24 25 26 27 28 29 30 31 32 33 34 35 36 37 38 39 40 41 42 43 44 45 46 47 48 49 50

853
AXUS43 KGID 192302
MISGRI

GID CWA HOURLY WEATHER ROUNDUP
NATIONAL WEATHER SERVICE HASTINGS NE
600 PM CDT THU OCT 19 2017

NOTE: "FAIR" INDICATES FEW OR NO CLOUDS BELOW 12,000 FEET WITH NO
SIGNIFICANT WEATHER AND/OR OBSTRUCTIONS TO VISIBILITY.

...SOUTH CENTRAL NEBRASKA...

CITY           SKY/WX    TMP DP  RH WIND       PRES   REMARKS
GRAND ISLAND   CLEAR     77  51  40 S13       29.94S
HASTINGS       CLEAR     77  47  34 S9        29.95F
KEARNEY        CLEAR     77  50  38 S13       29.93F
ORD            CLEAR     77  46  33 S10       29.90F
YORK           CLEAR     77  52  41 S9G16     29.95F
AURORA         CLEAR     78  48  34 S10       29.95S
LEXINGTON      CLEAR     78  48  35 S13       29.92S
HOLDREGE       CLEAR     78  48  35 S12       29.93F
HEBRON         CLEAR     78  46  32 S10G16    29.97S

...NEBRASKA PANHANDLE...

CITY           SKY/WX    TMP DP  RH WIND       PRES   REMARKS
CHADRON        SUNNY     82  18   9 S15       29.79S
ALLIANCE       SUNNY     78  33  19 S10       29.85F
SCOTTSBLUFF    SUNNY     77  29  17 S12       29.84F
SIDNEY         CLOUDY    75  32  20 S13       29.90S

...WESTERN AND NORTH CENTRAL NEBRASKA...

CITY           SKY/WX    TMP DP  RH WIND       PRES   REMARKS
VALENTINE      CLEAR     82  36  19 S18       29.82F
AINSWORTH      CLEAR     75  45  34 S13       29.87S
ONEILL         CLEAR     74  48  39 S10       29.90S
BROKEN BOW     CLEAR     76  49  38 S12       29.91F
IMPERIAL       SUNNY     77  40  26 S15       29.90S
NORTH PLATTE   CLEAR     77  50  38 S12       29.89F
MCCOOK         CLEAR     79  45  29 S17G26    29.91S

...EASTERN NEBRASKA...

CITY           SKY/WX    TMP DP  RH WIND       PRES   REMARKS
NORFOLK        CLEAR     74  50  42 S10       29.91S
SO SIOUX CITY  CLEAR     73  53  49 S9        29.94F
TEKAMAH        CLEAR     75  51  43 S8        29.95F
COLUMBUS       CLEAR     77  50  38 SE9       29.94F
ALBION         CLEAR     77  48  35 SE8       29.93S
OMAHA EPPLEY   CLEAR     77  53  43 S13       29.97F
OFFUTT AFB     CLEAR     76  54  46 SE9       29.97S
MILLARD        CLEAR     78  56  47 S6        29.97S
LINCOLN        CLEAR     76  54  46 S12       29.97S
NEBRASKA CITY  CLEAR     75  54  46 S10       30.00S
BEATRICE       CLEAR     77  53  43 S8        29.98S
FALLS CITY     CLEAR     75  52  44 S8        30.01S

...NORTHERN KANSAS...

CITY           SKY/WX    TMP DP  RH WIND       PRES   REMARKS
GOODLAND       CLOUDY    75  46  35 S16       29.93F
HILL CITY      CLEAR     80  41  24 S12       29.94F
NORTON         CLEAR     79  36  21 SE9G16    29.92F
PHILLIPSBURG   CLEAR     81  43  26 SE9       29.93F
SMITH CENTER     N/A     79  45  29 SE12      29.95F
HAYS           CLEAR     78  44  29 S17       29.96S
RUSSELL        CLEAR     77  42  28 S14       29.96S
CONCORDIA      CLEAR     77  48  35 S15       29.97S
SALINA         CLEAR     77  49  37 S14       29.99S
TOPEKA         PTCLDY    77  53  43 SE7       30.03S



USA.gov is the U.S. government's official web portal to all federal, state and local government web resources and services.